Hourly Data Report for October 22, 2012

All times are specified in Local Standard Time (LST). Add 1 hour to adjust for Daylight Saving Time where and when it is observed.

ST LEONARD CS
NEW BRUNSWICK

47°09'28.050" N
67°49'55.014" W
245.00 m
810I001
71019
WIY

Download Data

Hourly Data (October 2012)
Hourly Data Report for October 22, 2012
Temp Definition
°C
Dew Point Temp Definition
°C
Rel Hum Definition
%
Wind Dir Definition
10's deg

Wind Spd Definition
km/h
Visibility Definition
km
Stn Press Definition
kPa
Hmdx Definition


Wind Chill Definition


Weather Definition


TIME
00:00 6.9 5.0 88 28 4   97.22     LegendNANA
01:00 7.4 5.1 85 23 6   97.20     LegendNANA
02:00 7.4 5.1 85 22 9   97.17     LegendNANA
03:00 7.0 4.7 85 24 9   97.14     LegendNANA
04:00 6.6 5.2 91 25 7   97.14     LegendNANA
05:00 6.8 5.5 91 24 7   97.15     LegendNANA
06:00 7.1 4.9 86 26 13   97.17     LegendNANA
07:00 7.3 4.6 83 27 17   97.22     LegendNANA
08:00 7.7 4.8 82 28 19   97.27     LegendNANA
09:00 8.8 4.7 75 29 20   97.30     LegendNANA
10:00 10.2 4.7 69 29 24   97.33     LegendNANA
11:00 9.9 3.2 63 30 22   97.37     LegendNANA
12:00 10.6 3.8 63 29 24   97.37     LegendNANA
13:00 10.4 3.6 63 29 22   97.40     LegendNANA
14:00 10.1 2.4 59 30 17   97.41     LegendNANA
15:00 10.6 1.3 53 30 24   97.45     LegendNANA
16:00 10.3 1.0 52 30 22   97.52     LegendNANA
17:00 8.6 -0.6 52 30 26   97.60     LegendNANA
18:00 7.7 -0.4 56 30 22   97.69     LegendNANA
19:00 7.3 -0.5 58 30 15   97.76     LegendNANA
20:00 6.6 -0.8 59 30 19   97.79     LegendNANA
21:00 5.5 -0.7 64 30 22   97.84     LegendNANA
22:00 5.1 -1.1 64 30 19   97.88     LegendNANA
23:00 4.7 -1.0 67 30 19   97.92     LegendNANA

Notes on Data Quality.

Legend

  • E = Estimated
  • M = Missing
  • NA = Not Available
  • ‡ = Partner data that is not subject to review by the National Climate Archives
Date modified: